Vorticity
5 5 5 6 6 3 9 6 6 6 7 8 7 6 3 5 6 5 5 6 7 5 4 10 6 8 10 10 13 13 8 6 17 13 5 13 10 7 4 7 11 5 2
5 6 5 6 6 2 3 8 9 5 8 5 3 2 7 6 5 7 9 10 11 10 5 10 12 7 9 21 11 26 19 19 19 6 11 8 8 11 11 8 3 1 2
6 6 5 5 7 6 4 1 3 2 1 6 6 7 4 5 7 8 9 12 12 12 9 6 8 14 11 14 9 16 19 13 13 6 7 11 9 4 -2 -1 -1 -0 -1
6 5 6 4 5 4 6 6 4 3 1 8 7 5 6 7 7 10 13 11 11 15 3 5 18 -4 20 5 12 5 16 7 20 20 7 6 10 3 -2 -1 0 7 8
6 8 7 8 4 6 6 6 6 4 5 7 5 3 7 7 9 10 7 5 6 7 8 16 20 16 0 5 4 -2 -2 16 7 2 2 3 -1 3 0 -0 -2 -1 3
4 7 4 9 9 13 9 7 7 4 7 11 6 6 7 7 8 6 4 4 7 5 5 8 1 7 21 10 -16 29 37 -30 7 11 2 1 1 -6 -4 -4 -2 20 7
6 -2 7 9 5 4 3 3 5 8 7 7 5 6 6 6 6 4 4 6 10 5 3 1 6 8 14 -2 0 10 13 9 -3 1 -1 7 -4 -8 -1 6 5 5 5
8 7 12 7 4 9 1 2 10 10 10 5 6 5 6 6 6 6 5 3 3 2 3 4 0 8 -5 2 7 2 3 6 1 -3 -3 4 9 6 21 -1 2 10 12
6 9 2 7 3 8 4 4 4 14 6 5 7 5 7 6 4 3 5 5 3 2 3 4 6 12 -0 4 6 6 7 6 8 13 8 5 1 1 4 8 9 11 11
6 10 4 9 7 2 1 2 5 4 10 6 6 4 6 4 4 5 6 2 2 3 3 2 2 3 3 4 7 6 5 3 3 2 2 4 9 8 9 10 8 7 4
4 4 9 6 7 11 8 5 10 6 4 6 6 4 4 4 4 4 4 2 4 4 3 3 4 4 5 5 1 -0 2 5 6 5 7 9 5 7 6 4 5 7 1
5 1 2 11 5 6 6 5 5 2 7 3 4 4 4 4 3 3 3 4 4 4 5 4 5 3 3 4 5 7 7 7 7 7 5 6 6 4 4 6 6 4 5
6 4 0 9 11 10 3 6 6 4 3 5 5 5 3 3 4 2 3 3 4 4 5 2 5 6 6 7 8 8 6 6 7 5 4 7 4 5 3 7 2 1 5
-1 -0 3 6 8 7 10 4 5 4 5 6 5 5 3 3 4 4 4 4 4 6 6 5 6 5 6 5 7 7 6 6 6 3 6 5 4 4 3 4 3 7 4
4 -1 4 6 2 6 7 9 7 6 6 4 5 6 4 7 5 4 6 5 4 4 5 4 4 4 6 6 5 8 8 5 5 4 5 3 4 2 4 -0 8 5 8
-11 16 2 12 -1 5 7 7 7 7 4 5 3 3 3 4 4 4 4 3 2 2 2 4 4 5 5 6 6 7 7 6 6 4 3 5 3 5 5 2 -1 1 9
3 2 -10 19 0 5 2 -2 3 5 7 8 5 7 5 4 6 6 5 5 4 4 6 6 5 6 4 5 7 8 9 7 6 4 5 2 4 5 2 3 -0 12 9
0 -9 26 -19 47 -11 2 -4 -1 4 11 7 6 9 10 4 3 4 4 5 5 4 5 5 4 1 5 5 8 9 10 5 5 6 3 2 5 9 -5 3 10 -4 2
12 9 4 13 -44 -4 37 14 11 1 -3 3 7 10 7 8 8 8 7 6 6 5 5 3 5 6 10 8 5 5 4 4 7 1 6 -1 -1 -4 2 6 -1 10 4
-3 10 17 -23 14 18 -28 55 20 0 10 -3 7 6 4 2 7 10 9 7 6 4 5 7 9 9 5 7 6 7 6 11 5 6 -1 6 3 10 0 12 6 5 3
9 39 -2 13 -11 -41 1 -23 -1 62 8 5 -4 14 8 10 6 5 5 8 7 6 6 7 4 6 6 8 2 7 9 -1 -6 17 -2 11 9 11 11 6 1 8 12
-3 -73 12 22 5 -1 -21 15 41 29 -29 19 21 -4 8 9 3 0 8 8 10 5 9 5 9 9 8 1 -3 4 23 -7 -3 25 3 -6 5 12 -1 8 14 3 4
14 11 -5 -19 26 12 7 -10 -31 5 -4 18 41 47 -7 27 8 11 9 2 -1 2 3 3 3 -4 5 -16 -10 6 5 19 -3 -1 3 10 16 22 10 10 13 7 -3
4 15 16 15 -9 15 -20 34 12 6 24 -19 6 27 15 13 3 -13 18 9 8 6 -1 -0 2 7 -2 29 6 2 16 -30 10 30 6 12 10 0 -2 9 16 17 12
12 7 8 21 16 -7 -4 5 3 40 -49 6 -50 22 -6 -2 28 28 -4 2 -5 -2 6 12 15 -18 9 26 -30 -8 0 4 4 4 -15 -9 22 17 17 20 12 8 6
6 10 3 4 10 21 27 19 -7 33 46 -30 22 -15 -16 26 1 19 -12 27 20 35 14 -8 37 -6 -3 5 5 -2 32 15 21 11 15 14 11 23 12 11 7 8 6
Height
5831 5836 5839 5843 5847 5851 5854 5857 5859 5861 5863 5864 5866 5867 5868 5869 5869 5870 5870 5871 5872 5871 5870 5870 5870 5869 5869 5868 5866 5865 5867 5868 5867 5867 5869 5868 5868 5868 5867 5868 5869 5870 5870
5826 5830 5834 5838 5842 5846 5850 5853 5855 5857 5859 5861 5863 5864 5865 5866 5866 5866 5867 5867 5867 5868 5867 5868 5865 5865 5865 5864 5863 5861 5863 5864 5863 5865 5866 5866 5865 5866 5866 5867 5868 5869 5869
5821 5826 5829 5832 5838 5841 5846 5849 5852 5854 5856 5858 5859 5861 5861 5862 5863 5863 5863 5864 5864 5865 5865 5865 5864 5862 5862 5863 5861 5860 5861 5862 5863 5864 5865 5865 5864 5864 5865 5866 5867 5867 5867
5818 5823 5825 5827 5833 5836 5840 5843 5846 5850 5852 5854 5855 5857 5858 5859 5859 5860 5861 5861 5861 5862 5862 5861 5861 5861 5861 5861 5860 5861 5861 5862 5863 5864 5864 5864 5865 5866 5866 5865 5865 5864 5863
5814 5818 5820 5824 5828 5831 5834 5837 5841 5844 5847 5849 5851 5853 5854 5855 5856 5857 5858 5858 5859 5859 5859 5857 5858 5858 5859 5860 5860 5860 5861 5862 5864 5865 5865 5865 5864 5864 5864 5864 5863 5862 5860
5809 5813 5814 5820 5823 5825 5829 5831 5835 5838 5841 5843 5846 5848 5850 5851 5852 5854 5854 5855 5856 5856 5856 5855 5856 5856 5857 5858 5859 5860 5861 5862 5862 5864 5864 5864 5864 5863 5861 5861 5860 5858 5856
5802 5806 5808 5813 5816 5819 5822 5826 5829 5832 5836 5838 5841 5843 5845 5847 5849 5850 5851 5851 5853 5853 5853 5853 5854 5854 5855 5856 5856 5857 5858 5859 5859 5860 5862 5861 5860 5860 5858 5857 5856 5853 5851
5795 5799 5802 5805 5810 5813 5817 5821 5823 5826 5829 5832 5835 5837 5840 5843 5844 5846 5847 5848 5849 5851 5851 5851 5851 5852 5852 5853 5854 5855 5856 5857 5856 5856 5856 5855 5855 5854 5853 5852 5851 5849 5847
5789 5792 5795 5800 5802 5807 5811 5814 5817 5820 5823 5825 5828 5833 5835 5837 5838 5841 5843 5844 5845 5846 5847 5846 5846 5849 5849 5849 5850 5851 5851 5852 5852 5852 5852 5852 5850 5849 5848 5846 5845 5843 5842
5780 5784 5787 5792 5795 5799 5803 5808 5811 5815 5817 5819 5822 5826 5829 5830 5833 5836 5838 5839 5840 5841 5842 5844 5843 5844 5844 5845 5846 5846 5846 5846 5847 5847 5847 5845 5844 5843 5842 5841 5840 5838 5837
5771 5776 5779 5783 5786 5792 5796 5800 5803 5808 5809 5812 5815 5818 5821 5823 5827 5829 5831 5834 5834 5835 5837 5837 5837 5838 5839 5839 5840 5840 5841 5841 5841 5840 5840 5839 5838 5837 5835 5834 5833 5832 5831
5762 5766 5770 5775 5778 5783 5788 5792 5795 5798 5802 5804 5807 5810 5814 5816 5818 5821 5822 5826 5829 5829 5830 5831 5832 5832 5832 5831 5832 5833 5834 5834 5834 5834 5834 5832 5831 5830 5829 5827 5826 5825 5823
5752 5758 5762 5766 5769 5775 5779 5782 5785 5789 5794 5797 5800 5803 5805 5808 5809 5812 5815 5818 5821 5821 5824 5824 5824 5825 5825 5826 5826 5825 5826 5826 5826 5825 5826 5826 5825 5824 5823 5821 5819 5816 5814
5742 5747 5751 5755 5758 5762 5767 5772 5775 5779 5783 5787 5791 5793 5796 5798 5800 5802 5806 5808 5810 5813 5815 5816 5816 5815 5816 5816 5817 5817 5817 5818 5818 5817 5818 5817 5816 5816 5815 5813 5811 5810 5808
5732 5733 5739 5743 5746 5750 5755 5760 5764 5768 5773 5776 5780 5782 5785 5787 5790 5793 5796 5798 5800 5803 5806 5806 5806 5807 5807 5808 5808 5808 5809 5809 5809 5808 5810 5808 5807 5807 5806 5805 5803 5801 5799
5708 5721 5726 5730 5733 5738 5742 5748 5752 5756 5760 5764 5768 5770 5774 5777 5780 5783 5786 5787 5790 5793 5796 5797 5797 5797 5797 5798 5798 5798 5798 5800 5800 5799 5799 5798 5797 5797 5796 5796 5794 5792 5789
5698 5707 5713 5717 5721 5725 5730 5734 5738 5743 5747 5751 5754 5758 5762 5765 5768 5771 5774 5777 5779 5781 5784 5785 5786 5787 5786 5787 5788 5787 5788 5789 5790 5790 5788 5787 5787 5786 5785 5784 5783 5780 5778
5681 5686 5695 5699 5708 5712 5715 5720 5723 5728 5733 5737 5741 5744 5748 5751 5755 5758 5761 5765 5767 5769 5771 5772 5772 5774 5775 5774 5775 5776 5777 5778 5779 5778 5777 5776 5776 5774 5772 5772 5770 5768 5765
5669 5671 5676 5684 5689 5695 5700 5704 5707 5713 5718 5722 5725 5729 5734 5736 5740 5744 5748 5751 5754 5756 5757 5759 5760 5761 5762 5763 5763 5764 5766 5767 5767 5766 5765 5764 5763 5761 5760 5759 5756 5754 5752
5654 5657 5661 5666 5673 5679 5685 5688 5692 5696 5701 5706 5710 5714 5718 5720 5725 5730 5734 5738 5740 5742 5744 5745 5747 5748 5749 5750 5751 5753 5754 5754 5753 5752 5753 5753 5751 5749 5747 5746 5744 5741 5739
5638 5645 5649 5650 5655 5660 5664 5672 5679 5680 5683 5689 5693 5696 5701 5706 5709 5714 5718 5722 5725 5727 5730 5732 5735 5736 5736 5737 5739 5739 5740 5740 5740 5740 5740 5739 5737 5736 5735 5734 5731 5728 5725
5620 5620 5625 5633 5640 5643 5651 5656 5661 5663 5668 5673 5676 5679 5684 5688 5693 5698 5702 5705 5709 5711 5714 5716 5719 5722 5724 5725 5723 5724 5724 5724 5725 5725 5726 5724 5722 5722 5720 5718 5716 5714 5712
5602 5606 5610 5614 5619 5627 5631 5633 5641 5644 5650 5654 5658 5662 5668 5672 5677 5681 5685 5688 5692 5695 5698 5701 5702 5706 5708 5712 5710 5710 5710 5711 5710 5710 5709 5709 5708 5706 5704 5703 5700 5699 5697
5582 5587 5592 5596 5602 5608 5610 5615 5621 5625 5628 5637 5641 5645 5650 5655 5661 5666 5671 5672 5675 5679 5682 5684 5686 5689 5692 5694 5695 5695 5694 5694 5695 5695 5694 5694 5693 5692 5689 5688 5687 5685 5682
5560 5566 5571 5575 5582 5588 5591 5597 5601 5605 5611 5616 5623 5628 5632 5637 5644 5650 5652 5655 5659 5663 5666 5664 5667 5670 5673 5676 5677 5677 5678 5680 5681 5682 5680 5680 5679 5676 5674 5672 5670 5669 5667
5538 5544 5549 5554 5559 5566 5570 5576 5578 5584 5588 5596 5602 5609 5615 5621 5626 5631 5633 5635 5637 5646 5646 5649 5649 5653 5655 5657 5659 5660 5662 5663 5663 5662 5663 5659 5660 5659 5657 5657 5656 5655 5653